Sylvania, OH

6:31 AM EST on February 22, 2017 (GMT -0500)
Lambertville

Weather History for KDUH - October, 2012

Change the Weather History Date:

Sunday, October 28, 2012

  Actual Average (KTOL) Record (KTOL)
Temperature  
Mean Temperature 44 °F -  
Max Temperature 50 °F 58 °F 81 °F (1927)
Min Temperature 39 °F 37 °F 15 °F (1976)
Degree Days  
Heating Degree Days 20    
Moisture  
Dew Point 30 °F    
Average Humidity 60    
Maximum Humidity 74    
Minimum Humidity 46    
Precipitation  
Precipitation 0.00 in - - ()
Sea Level Pressure  
Sea Level Pressure 30.13 in    
Wind  
Wind Speed 9 mph (North)    
Max Wind Speed 20 mph    
Max Gust Speed 30 mph    
Visibility 10 miles    
Events      
Averages and records for this station are not official NWS values.
T = Trace of Precipitation, MM = Missing Value Source: NWS Daily Summary

Daily Weather History Graph

Daily Weather History Graph

Search for Another Location

Airport or City:

Trip Planner

Search our weather history database for the weather conditions in past years. The results will help you decide how hot, cold, wet, or windy it might be!

Date:

Astronomy

Oct. 28, 2012 Rise Set
Actual Time 8:02 AM EDT 6:33 PM EDT
Civil Twilight 7:33 AM EDT 7:02 PM EDT
Nautical Twilight 7:01 AM EDT 7:34 PM EDT
Astronomical Twilight 6:28 AM EDT 8:07 PM EDT
Moon 5:50 PM EDT (10/28) 6:54 AM EDT (10/28)
Length of Visible Light 11h 28m
Length of Day
10h 31m
Waxing Gibbous, 99% of the Moon is Illuminated
Oct 28
Waxing Gibbous
Oct 29
Full
Nov 6
Last Quarter
Nov 13
New
Nov 20
First Quarter

Hourly Weather History & Observations

Time (EDT) Temp. Windchill Dew Point Humidity Pressure Visibility Wind Dir Wind Speed Gust Speed Precip Events Conditions
12:15 AM 39.9 °F 35.8 °F 30.9 °F 70% 30.18 in 10.0 mi NNW 5.8 mph - N/A   Scattered Clouds
12:35 AM 39.7 °F 34.3 °F 31.1 °F 71% 30.18 in 10.0 mi North 8.1 mph - N/A   Clear
12:55 AM 39.7 °F 34.9 °F 31.1 °F 71% 30.18 in 10.0 mi North 6.9 mph - N/A   Clear
1:15 AM 39.4 °F 35.2 °F 31.5 °F 73% 30.18 in 10.0 mi North 5.8 mph - N/A   Scattered Clouds
1:35 AM 40.3 °F 34.9 °F 31.6 °F 71% 30.17 in 10.0 mi North 8.1 mph - N/A   Overcast
2:15 AM 40.1 °F 36.9 °F 31.3 °F 71% 30.17 in 10.0 mi North 4.6 mph - N/A   Mostly Cloudy
2:35 AM 40.1 °F 36.9 °F 31.3 °F 71% 30.17 in 10.0 mi North 4.6 mph - N/A   Mostly Cloudy
2:55 AM 39.7 °F 34.3 °F 31.1 °F 71% 30.17 in 10.0 mi North 8.1 mph - N/A   Mostly Cloudy
3:15 AM 40.1 °F 34.7 °F 31.1 °F 70% 30.17 in 10.0 mi North 8.1 mph - N/A   Mostly Cloudy
3:35 AM 40.1 °F 36.9 °F 31.1 °F 70% 30.17 in 10.0 mi NNE 4.6 mph - N/A   Mostly Cloudy
3:55 AM 39.9 °F 37.8 °F 30.9 °F 70% 30.16 in 10.0 mi North 3.5 mph - N/A   Mostly Cloudy
4:15 AM 39.9 °F 36.7 °F 30.7 °F 70% 30.16 in 10.0 mi North 4.6 mph - N/A   Mostly Cloudy
4:35 AM 41.0 °F 35.8 °F 30.7 °F 67% 30.16 in 10.0 mi North 8.1 mph - N/A   Overcast
4:55 AM 41.5 °F 35.9 °F 30.7 °F 65% 30.16 in 10.0 mi North 9.2 mph - N/A   Overcast
5:15 AM 41.5 °F 36.4 °F 30.4 °F 65% 30.15 in 10.0 mi North 8.1 mph 18.4 mph N/A   Overcast
5:35 AM 41.4 °F 35.2 °F 30.2 °F 65% 30.15 in 10.0 mi North 10.4 mph 16.1 mph N/A   Overcast
5:55 AM 41.4 °F 35.7 °F 29.8 °F 64% 30.15 in 10.0 mi North 9.2 mph 17.3 mph N/A   Overcast
6:15 AM 41.2 °F 36.6 °F 29.7 °F 64% 30.15 in 10.0 mi North 6.9 mph - N/A   Overcast
6:35 AM 41.2 °F 35.0 °F 29.7 °F 64% 30.15 in 10.0 mi North 10.4 mph - N/A   Overcast
6:55 AM 41.0 °F 35.2 °F 29.7 °F 64% 30.15 in 10.0 mi North 9.2 mph - N/A   Overcast
7:15 AM 40.3 °F 34.4 °F 29.7 °F 66% 30.15 in 10.0 mi North 9.2 mph 18.4 mph N/A   Mostly Cloudy
7:35 AM 39.9 °F 33.4 °F 30.0 °F 68% 30.15 in 10.0 mi North 10.4 mph - N/A   Mostly Cloudy
7:55 AM 39.4 °F 35.2 °F 30.2 °F 70% 30.17 in 10.0 mi NNW 5.8 mph - N/A   Overcast
8:15 AM 39.0 °F 34.8 °F 30.9 °F 73% 30.17 in 10.0 mi North 5.8 mph - N/A   Overcast
8:35 AM 39.2 °F 34.2 °F 31.3 °F 73% 30.18 in 10.0 mi NNW 6.9 mph - N/A   Mostly Cloudy
8:55 AM 39.2 °F 33.0 °F 31.5 °F 74% 30.18 in 10.0 mi North 9.2 mph - N/A   Mostly Cloudy
9:15 AM 39.2 °F 33.6 °F 31.6 °F 74% 30.18 in 10.0 mi North 8.1 mph - N/A   Mostly Cloudy
9:35 AM 40.1 °F 33.2 °F 31.8 °F 72% 30.17 in 10.0 mi North 11.5 mph 16.1 mph N/A   Mostly Cloudy
9:55 AM 42.6 °F 37.8 °F 32.0 °F 66% 30.16 in 10.0 mi North 8.1 mph 17.3 mph N/A   Scattered Clouds
10:15 AM 43.5 °F 38.3 °F 32.7 °F 66% 30.15 in 10.0 mi NNE 9.2 mph 19.6 mph N/A   Clear
10:35 AM 45.1 °F 38.8 °F 33.4 °F 64% 30.16 in 10.0 mi North 13.8 mph 19.6 mph N/A   Scattered Clouds
11:15 AM 45.7 °F 39.5 °F 34.5 °F 65% 30.15 in 10.0 mi NE 13.8 mph 21.9 mph N/A   Overcast
11:35 AM 47.5 °F - 34.7 °F 61% 30.14 in 10.0 mi North 15.0 mph 23.0 mph N/A   Mostly Cloudy
11:55 AM 48.4 °F - 33.6 °F 57% 30.13 in 10.0 mi NNE 18.4 mph 27.6 mph N/A   Mostly Cloudy
12:15 PM 49.3 °F - 32.2 °F 52% 30.13 in 10.0 mi NNE 18.4 mph 29.9 mph N/A   Scattered Clouds
12:35 PM 49.3 °F - 32.0 °F 51% 30.11 in 10.0 mi NNE 19.6 mph 29.9 mph N/A   Scattered Clouds
12:55 PM 50.2 °F - 31.8 °F 49% 30.11 in 10.0 mi NE 17.3 mph 25.3 mph N/A   Scattered Clouds
1:15 PM 50.5 °F - 30.6 °F 46% 30.10 in 10.0 mi NE 16.1 mph 28.8 mph N/A   Clear
1:35 PM 49.6 °F - 29.8 °F 47% 30.11 in 10.0 mi NE 16.1 mph 26.5 mph N/A   Scattered Clouds
1:55 PM 49.1 °F - 29.1 °F 46% 30.11 in 10.0 mi NE 12.7 mph 23.0 mph N/A   Scattered Clouds
2:14 PM 48.6 °F - 29.5 °F 48% 30.10 in 10.0 mi NE 16.1 mph 23.0 mph N/A   Scattered Clouds
2:35 PM 47.7 °F - 28.9 °F 48% 30.10 in 10.0 mi North 15.0 mph 24.2 mph N/A   Scattered Clouds
2:55 PM 47.3 °F - 28.4 °F 48% 30.09 in 10.0 mi NNE 15.0 mph 24.2 mph N/A   Scattered Clouds
3:15 PM 47.5 °F - 28.6 °F 48% 30.10 in 10.0 mi NNE 15.0 mph 21.9 mph N/A   Mostly Cloudy
3:35 PM 47.3 °F - 28.6 °F 48% 30.10 in 10.0 mi North 15.0 mph 25.3 mph N/A   Mostly Cloudy
3:55 PM 46.9 °F - 28.2 °F 48% 30.10 in 10.0 mi North 16.1 mph 20.7 mph N/A   Scattered Clouds
4:15 PM 46.4 °F 41.1 °F 27.7 °F 48% 30.09 in 10.0 mi NNE 11.5 mph 21.9 mph N/A   Clear
4:35 PM 46.4 °F 40.4 °F 27.3 °F 47% 30.09 in 10.0 mi NNE 13.8 mph 26.5 mph N/A   Clear
4:55 PM 46.6 °F - 28.8 °F 50% 30.10 in 10.0 mi North 11.5 mph 19.6 mph N/A   Clear
5:15 PM 46.4 °F 40.4 °F 28.9 °F 51% 30.10 in 10.0 mi North 13.8 mph 23.0 mph N/A   Clear
5:35 PM 45.9 °F 41.2 °F 29.1 °F 52% 30.10 in 10.0 mi North 9.2 mph 20.7 mph N/A   Mostly Cloudy
5:55 PM 45.5 °F 39.6 °F 28.2 °F 51% 30.10 in 10.0 mi NNE 12.7 mph 18.4 mph N/A   Mostly Cloudy
6:15 PM 45.1 °F 38.4 °F 27.0 °F 49% 30.11 in 10.0 mi North 15.0 mph 20.7 mph N/A   Scattered Clouds
6:35 PM 44.6 °F 38.8 °F 27.0 °F 50% 30.11 in 10.0 mi North 11.5 mph 18.4 mph N/A   Clear
6:55 PM 44.6 °F 38.4 °F 27.0 °F 50% 30.11 in 10.0 mi North 12.7 mph 20.7 mph N/A   Clear
7:15 PM 44.2 °F 38.0 °F 27.1 °F 51% 30.11 in 10.0 mi North 12.7 mph - N/A   Clear
7:35 PM 44.1 °F 38.1 °F 27.3 °F 52% 30.11 in 10.0 mi North 11.5 mph 18.4 mph N/A   Mostly Cloudy
7:55 PM 43.9 °F 37.9 °F 27.5 °F 53% 30.12 in 10.0 mi North 11.5 mph 23.0 mph N/A   Mostly Cloudy
8:14 PM 43.7 °F 37.3 °F 27.5 °F 53% 30.12 in 10.0 mi North 12.7 mph 18.4 mph N/A   Scattered Clouds
8:35 PM 43.7 °F 37.7 °F 27.3 °F 53% 30.11 in 10.0 mi North 11.5 mph 18.4 mph N/A   Mostly Cloudy
9:35 PM 43.0 °F 36.8 °F 27.0 °F 53% 30.11 in 10.0 mi North 11.5 mph 18.4 mph N/A   Overcast
9:55 PM 42.8 °F 36.2 °F 27.1 °F 54% 30.10 in 10.0 mi North 12.7 mph 18.4 mph N/A   Overcast
10:15 PM 42.8 °F 38.6 °F 27.5 °F 55% 30.10 in 10.0 mi North 6.9 mph 23.0 mph N/A   Overcast
10:35 PM 42.6 °F 36.3 °F 27.9 °F 56% 30.10 in 10.0 mi North 11.5 mph 21.9 mph N/A   Overcast
10:54 PM 42.8 °F 37.0 °F 28.2 °F 56% 30.10 in 10.0 mi North 10.4 mph 19.6 mph N/A   Overcast
11:15 PM 42.8 °F 37.5 °F 28.4 °F 57% 30.10 in 10.0 mi North 9.2 mph 21.9 mph N/A   Overcast
11:35 PM 42.8 °F 38.0 °F 28.4 °F 57% 30.10 in 10.0 mi North 8.1 mph - N/A   Overcast
11:55 PM 42.8 °F 37.5 °F 29.1 °F 58% 30.09 in 10.0 mi North 9.2 mph - N/A   Overcast